Regional Weather Roundup
Issued by NWS

Home | Current Version | Previous Version | Text Only | Print | Product List | Glossary Off
Versions: 1 2 3 4 5 6 7 8 9 10 11 12 13 14 15 16 17 18 19 20 21 22 23 24 25 26 27 28 29 30 31 32 33 34 35 36 37 38 39 40 41 42 43 44 45 46 47 48 49 50

000
ASUS43 KDTX 210010
RWRMI
MICHIGAN HOURLY REGIONAL WEATHER ROUNDUP
NATIONAL WEATHER SERVICE DETROIT/PONTIAC MI
700 PM EST TUE FEB 20 2018

NOTE: "FAIR" INDICATES FEW OR NO CLOUDS BELOW 12,000 FEET WITH NO
SIGNIFICANT WEATHER AND/OR OBSTRUCTION TO VISIBILITY.

MIZ047>049-052>055-059>063-066>070-074>076-081>083-210100-
SOUTHEAST LOWER MICHIGAN

CITY           SKY/WX    TMP DP  RH WIND       PRES   REMARKS
ADRIAN         MOCLDY    64  56  75 SW16      29.97F
6HR MIN TEMP:  59; 6HR MAX TEMP:  64; 6HR PCP:  0.30;

ALMA           RAIN      54  54 100 SE7       29.94S
6HR MIN TEMP:  53; 6HR MAX TEMP:  58;

ANN ARBOR      CLOUDY    60  59  96 S6        29.96F
BAD AXE        LGT RAIN  58  57  97 S17       29.91F
6HR MIN TEMP:  56; 6HR MAX TEMP:  60;

CARO           LGT RAIN  59  58  96 S13G18    29.90F
DETROIT CITY   CLOUDY    61  56  83 S12       29.98F
6HR MIN TEMP:  59; 6HR MAX TEMP:  62; 6HR PCP:  0.20;

DETROIT        CLOUDY    60  58  92 S12G20    29.98F
6HR MIN TEMP:  59; 6HR MAX TEMP:  63; 6HR PCP:  0.19;

FLINT          LGT RAIN  60  58  92 S12       29.94S FOG
6HR MIN TEMP:  57; 6HR MAX TEMP:  60; 6HR PCP:  0.39;

GROSSE ILE     MOCLDY    45  45  99 S7        29.99S FOG
6HR MIN TEMP:  42; 6HR MAX TEMP:  52; 6HR PCP:  0.21;

HILLSDALE      CLOUDY    61  55  82 S6        29.95F
HOWELL         LGT RAIN  60  58  94 S9        29.95S
6HR MIN TEMP:  58; 6HR MAX TEMP:  60; 6HR PCP:  0.30;


CITY           SKY/WX    TMP DP  RH WIND       PRES   REMARKS
JACKSON        LGT RAIN  63  59  87 S17G25    29.96R FOG
6HR MIN TEMP:  61; 6HR MAX TEMP:  63; 6HR PCP:  0.42;

LAMBERTVILLE   FAIR      66  57  72 S9        29.99S
6HR MIN TEMP:  61; 6HR MAX TEMP:  67;

LANSING        LGT RAIN  57  55  93 W12       29.98R
6HR MIN TEMP:  57; 6HR MAX TEMP:  61; 6HR PCP:  0.39;

LAPEER         RAIN      60  59  94 S12G20    29.95F
6HR MIN TEMP:  58; 6HR MAX TEMP:  60; 6HR PCP:  0.32;

MASON          RAIN      60  56  86 W21G26    29.98R
6HR MIN TEMP:  59; 6HR MAX TEMP:  62;

MONROE         MOCLDY    64  56  78 S10       29.98F
6HR MIN TEMP:  59; 6HR MAX TEMP:  64; 6HR PCP:  0.12;

MT. CLEMENS    CLOUDY    54  54 100 S7        29.97F FOG
6HR MIN TEMP:  54; 6HR MAX TEMP:  62; 6HR PCP:  0.26;

PONTIAC        LGT RAIN  58  58 100 S6        29.96F
6HR MIN TEMP:  58; 6HR MAX TEMP:  60; 6HR PCP:  0.30;

PORT HOPE        N/A     59  56  89 S10G21    29.88S
6HR MIN TEMP:  58; 6HR MAX TEMP:  61; 6HR PCP:  0.18;

PORT HURON     CLOUDY    55  54  94 S7        29.99S
TRI CITIES     LGT RAIN  57  54  89 W12       29.94R
6HR MIN TEMP:  56; 6HR MAX TEMP:  60; 6HR PCP:  0.44;

MIDLAND        LGT RAIN  57  56  97 SW3       29.92R
6HR MIN TEMP:  57; 6HR MAX TEMP:  59; 6HR PCP:  0.23;

TROY           CLOUDY    60  58  94 S8        29.99F
SAGINAW HB     LGT RAIN  57  55  94 SW10      29.94R
$$
MIZ043>046-050>051-056>058-064>065-071>073-077>080-210100-
SOUTHWEST LOWER MICHIGAN

CITY           SKY/WX    TMP DP  RH WIND       PRES   REMARKS
BATTLE CREEK   LGT RAIN  56  55  97 W6        29.99R
6HR MIN TEMP:  56; 6HR MAX TEMP:  62; 6HR PCP:  0.92;

BENTON HARBOR  LGT RAIN  55  53  93 S6        29.96R
6HR MIN TEMP:  54; 6HR MAX TEMP:  64; 6HR PCP:  0.41;

BIG RAPIDS     LGT RAIN  52  50  92 S6        29.86F
6HR MIN TEMP:  52; 6HR MAX TEMP:  57; 6HR PCP:  0.51;

COLDWATER      LGT RAIN  57  57 100 NW10      30.01R
6HR MIN TEMP:  57; 6HR MAX TEMP:  63;

FREMONT        RAIN      51  50  97 W15G21    29.93R
6HR MIN TEMP:  51; 6HR MAX TEMP:  59;

HOLLAND        LGT RAIN  54  53  97 SW9       29.94R
6HR MIN TEMP:  53; 6HR MAX TEMP:  65; 6HR PCP:  0.57;

GRAND RAPIDS   LGT RAIN  56  56 100 S8        29.93S
6HR MIN TEMP:  56; 6HR MAX TEMP:  63; 6HR PCP:  0.80;

IONIA          RAIN      54  54 100 SW6       29.94R
6HR MIN TEMP:  54; 6HR MAX TEMP:  60; 6HR PCP:  0.43;

KALAMAZOO      LGT RAIN  57  54  89 SW5       30.00R FOG
6HR MIN TEMP:  57; 6HR MAX TEMP:  63; 6HR PCP:  0.62;

LUDINGTON      CLOUDY    37  37  98 W3        29.95R
6HR MIN TEMP:  37; 6HR MAX TEMP:  55; 6HR PCP:  0.60;

MARSHALL       DRIZZLE   56  56  97 W8        29.99R
6HR MIN TEMP:  56; 6HR MAX TEMP:  62; 6HR PCP:  0.39;

MOUNT PLEASANT RAIN      56  55  96 SE3       29.90S
6HR MIN TEMP:  56; 6HR MAX TEMP:  60; 6HR PCP:  0.29;

MUSKEGON       LGT RAIN  43  40  89 W16G28    29.96R FOG
6HR MIN TEMP:  48; 6HR MAX TEMP:  60; 6HR PCP:  0.69;

SOUTH HAVEN    LGT RAIN  55  53  95 S3        29.95R
$$
MIZ016>042-210100-
NORTHERN LOWER MICHIGAN

CITY           SKY/WX    TMP DP  RH WIND       PRES   REMARKS
ALPENA         LGT RAIN  52  52 100 S3        29.86S VSB 3/4
6HR MIN TEMP:  40; 6HR MAX TEMP:  57; 6HR PCP:  0.26;

BEAVER ISLAND  CLOUDY    33  32  98 SW8       29.87R WCI  25
6HR MIN TEMP:  33; 6HR MAX TEMP:  47;

BELLAIRE       CLOUDY    38  38 100 CALM      29.89R
6HR MIN TEMP:  38; 6HR MAX TEMP:  56;

CADILLAC       RAIN      50  49  98 SW7       29.84S
CHARLEVOIX     CLOUDY    35  35 100 W10       29.91R FOG     WCI  27
6HR MIN TEMP:  35; 6HR MAX TEMP:  55;

FRANKFORT      CLOUDY    37  37 100 W5        29.93R WCI  34
GAYLORD        LGT RAIN  49  49 100 W15G25    29.82S FOG
6HR MIN TEMP:  49; 6HR MAX TEMP:  53; 6HR PCP:  0.32;

GRAYLING       LGT RAIN  51  51  99 S6        29.81F FOG
6HR MIN TEMP:  49; 6HR MAX TEMP:  55; 6HR PCP:  0.54;

HARBOR SPRINGS CLOUDY    34  33  99 W5        29.87R FOG     WCI  30
HOUGHTON LAKE  LGT RAIN  52  52 100 S8        29.86F
6HR MIN TEMP:  51; 6HR MAX TEMP:  56; 6HR PCP:  0.40;

MANISTEE       CLOUDY    37  35  92 W3        29.93R
OSCODA         DRIZZLE   54  53  98 SW13      29.87R
6HR MIN TEMP:  53; 6HR MAX TEMP:  56; 6HR PCP:  0.14;

PELLSTON       CLOUDY    37  36  96 CALM      29.86R
6HR MIN TEMP:  36; 6HR MAX TEMP:  41; 6HR PCP:  0.06;

ROGERS CITY    RAIN      38  37  97 CALM      29.83F
TRAVERSE CITY  CLOUDY    40  37  89 W10       29.90R WCI  33
6HR MIN TEMP:  40; 6HR MAX TEMP:  58; 6HR PCP:  0.27;

$$
MIZ007>008-015-210100-
EASTERN UPPER MICHIGAN

CITY           SKY/WX    TMP DP  RH WIND       PRES   REMARKS
KINROSS        MIX PCPN  31  31 100 S3        29.84R FOG
6HR MIN TEMP:  26; 6HR MAX TEMP:  31; 6HR PCP: TRACE;

MACKINAC ISLAN FOG       33  33 100 W7        29.85R VSB 1/2 WCI  27
6HR MIN TEMP:  31; 6HR MAX TEMP:  34; 6HR PCP:  0.02;

NEWBERRY       CLOUDY    33  32  98 W8        29.84R WCI  25
6HR MIN TEMP:  32; 6HR MAX TEMP:  35;

S. S. MARIE    CLOUDY    32  31  96 SE5       29.83R FOG     WCI  27
6HR MIN TEMP:  29; 6HR MAX TEMP:  32; 6HR PCP: TRACE;

MUNISING         N/A     32  30  92 NW13      29.88R WCI  22
6HR MIN TEMP:  28; 6HR MAX TEMP:  32;

$$
MIZ004>006-011>014-085-210100-
CENTRAL UPPER MICHIGAN

CITY           SKY/WX    TMP DP  RH WIND       PRES   REMARKS
MANISTIQUE     CLOUDY    32  30  94 W7        29.88R WCI  26
6HR MIN TEMP:  32; 6HR MAX TEMP:  35;

ESCANABA       CLOUDY    32  30  92 W3        29.90R FOG
6HR MIN TEMP:  30; 6HR MAX TEMP:  32;

MENOMINEE      CLOUDY    33  32  96 W5        29.92R WCI  29
6HR MIN TEMP:  33; 6HR MAX TEMP:  33; 6HR PCP: TRACE;

SAWYER-GWINN   CLOUDY    27  23  86 NW9       29.87R WCI  17
$$
MIZ001>003-009>011-084-210100-
WESTERN UPPER MICHIGAN

CITY           SKY/WX    TMP DP  RH WIND       PRES   REMARKS
IRON MOUNTAIN  CLOUDY    29  25  85 NW10      29.88R WCI  20
6HR MIN TEMP:  28; 6HR MAX TEMP:  32; 6HR PCP: TRACE;

HOUGHTON       CLOUDY    18  14  84 NW14G37   29.91R FOG     WCI   4
6HR MIN TEMP:  18; 6HR MAX TEMP:  28; 6HR PCP: TRACE;

COPPER HARBOR    N/A     20  17  88 N13       29.92R WCI   7
6HR MIN TEMP:  20; 6HR MAX TEMP:  29; 6HR PCP:  0.01;

IRONWOOD       LGT SNOW  17  16  95 W9        29.97R FOG     WCI   6
6HR MIN TEMP:  17; 6HR MAX TEMP:  24; 6HR PCP: TRACE;

$$

ABBREVIATIONS USED IN REMARKS
   TC - TEMPERATURE IN CELSIUS
  WCI - WIND CHILL INDEX
   HX - HEAT INDEX
  VSB - VISIBILITY




USA.gov is the U.S. government's official web portal to all federal, state and local government web resources and services.